Flag for Brazil Weather past 2 weeks in Boa Vista, Roraima, Brazil

Now
82 °F

Passing clouds.


Feels Like: 86 °F
Forecast: 76 / 90 °F
Wind: 12 mph from Northeast

Location: Boa Vista Aeropor-To

Current Time: Apr 26, 2015 at 10:59:39 PM

Latest Report: Apr 26, 2015 at 10:00 PM


Visibility: N/A

Pressure: 29.89 "Hg

Humidity: 66%

Dew point: 70 °F

Location of Boa VistaLocation

Historic Weather in Boa Vista — Graph

°F

Boa Vista temperature yesterday

Maximum temperature yesterday: 88 °F (at 4:00 PM)
Minimum temperature yesterday: 73 °F (at 5:00 AM)
Average temperature yesterday: 80 °F

Past Weeks' High & Low Weather Summary

 TemperatureHumidityPressure
High93 °F (Apr 13, 5:00 PM)94% (Apr 23, 11:00 PM)30.07 "Hg (Apr 23, 11:00 PM)
Low72 °F (Apr 18, 2:00 AM)34% (Apr 13, 5:00 PM)29.74 "Hg (Apr 16, 4:00 PM)
Average82 °F67%29.89 "Hg
* Reported Apr 11 9:00 PM — Apr 26 9:00 PM, Boa Vista, Weather by CustomWeather, © 2015

Note: Actual official high and low records may vary slightly from our data, if they occured in-between our weather recording intervals... More about our weather records

Advertising

Boa Vista weather history for previous 24 hours

 ConditionsComfort  
Time TempWeatherWind HumidityBarometerVisibility
9:00 PM
Sun, Apr 26
81 °FPassing clouds.6 mph70%29.86 "HgN/A
8:00 PM82 °FPassing clouds.8 mph66%29.83 "HgN/A
7:00 PM84 °FPassing clouds.13 mph58%29.80 "HgN/A
6:00 PM86 °FScattered clouds.15 mph55%29.77 "HgN/A
5:00 PM88 °FScattered clouds.13 mph52%29.77 "HgN/A
4:00 PM90 °FScattered clouds.8 mph52%29.80 "HgN/A
3:00 PM90 °FScattered clouds.8 mph52%29.83 "HgN/A
2:00 PM88 °FBroken clouds.8 mph59%29.86 "HgN/A
1:00 PM84 °FBroken clouds.14 mph66%29.89 "HgN/A
12:00 PM86 °FBroken clouds.3 mph59%29.92 "HgN/A
11:00 AM82 °FScattered showers. Broken clouds.7 mph66%29.95 "Hg6 mi
10:00 AM84 °FBroken clouds.14 mph62%29.98 "HgN/A
9:00 AM81 °FScattered clouds.9 mph70%29.98 "HgN/A
8:00 AM79 °FScattered clouds.9 mph74%29.95 "HgN/A
7:00 AM77 °FPartly sunny.10 mph79%29.92 "HgN/A
6:00 AM77 °FPartly sunny.7 mph83%29.92 "HgN/A
5:00 AM77 °FClear.6 mph83%29.89 "Hg10 mi
4:00 AM77 °FClear.7 mph83%29.89 "Hg10 mi
3:00 AM77 °FClear.5 mph89%29.89 "Hg10 mi
2:00 AM77 °FClear.6 mph89%29.86 "Hg10 mi
1:00 AM77 °FClear.2 mph83%29.89 "Hg10 mi
12:00 AM77 °FClear.6 mph83%29.92 "Hg10 mi
11:00 PM
Sat, Apr 25
79 °FClear.3 mph79%29.92 "Hg10 mi
10:00 PM79 °FPassing clouds.5 mph79%29.92 "HgN/A
Weather by CustomWeather, © 2015

See weather overviewHow to use our weather pages